IRIDIUM 106 1 41917U 17003A 25258.13775862 .00000125 00000+0 37496-4 0 9994 2 41917 86.4018 203.4207 0002693 82.8875 277.2627 14.34218310453784 IRIDIUM 103 1 41918U 17003B 25258.26460935 .00000320 00000+0 10721-3 0 9999 2 41918 86.4018 203.2684 0002380 97.3219 262.8247 14.34218959453820 IRIDIUM 109 1 41919U 17003C 25258.27095175 .00000333 00000+0 11201-3 0 9999 2 41919 86.4019 203.3206 0002147 88.2085 271.9357 14.34219770453795 IRIDIUM 102 1 41920U 17003D 25258.09970202 .00000210 00000+0 68071-4 0 9996 2 41920 86.4019 203.3218 0001923 79.5137 280.6275 14.34219326453852 IRIDIUM 105 1 41921U 17003E 25258.21002529 .00000418 00000+0 14210-3 0 9994 2 41921 86.4049 171.7880 0002203 87.7009 272.4439 14.34206670455727 IRIDIUM 104 1 41922U 17003F 25258.25192322 .00000179 00000+0 56843-4 0 9993 2 41922 86.4020 203.2966 0001966 93.7799 266.3622 14.34218938453860 IRIDIUM 114 1 41923U 17003G 25258.25826635 .00000109 00000+0 31859-4 0 9998 2 41923 86.4021 203.2783 0002376 90.1806 269.9662 14.34217235453845 IRIDIUM 108 1 41924U 17003H 25258.21678784 .00000202 00000+0 65127-4 0 9994 2 41924 86.4043 171.6809 0002295 79.6542 280.4913 14.34218543455691 IRIDIUM 112 1 41925U 17003J 25258.10604369 .00000122 00000+0 36374-4 0 9994 2 41925 86.4015 203.1964 0002123 85.8057 274.3381 14.34218650453849 IRIDIUM 111 1 41926U 17003K 25258.09335995 .00000215 00000+0 69777-4 0 9995 2 41926 86.4017 203.2661 0002383 85.5703 274.5765 14.34218222453821 IRIDIUM 113 1 42803U 17039A 25258.21285982 -.00000023 00000+0 -15367-4 0 9998 2 42803 86.3910 77.1086 0001846 92.8646 267.2761 14.34217339431779 IRIDIUM 123 1 42804U 17039B 25257.97526608 .00000014 00000+0 -20200-5 0 9996 2 42804 86.3930 108.7104 0002265 90.8392 269.3063 14.34217714430501 IRIDIUM 120 1 42805U 17039C 25258.20651609 .00000106 00000+0 30811-4 0 9993 2 42805 86.3901 76.9290 0002381 84.8921 275.2546 14.34217885431762 IRIDIUM 115 1 42806U 17039D 25257.94447658 .00000079 00000+0 17549-4 0 9993 2 42806 86.4438 77.1299 0002850 93.5551 266.5976 14.43278878434568 IRIDIUM 118 1 42807U 17039E 25257.65813551 .00000040 00000+0 73356-5 0 9998 2 42807 86.3929 108.8425 0001941 91.1537 268.9882 14.34217765430458 IRIDIUM 117 1 42808U 17039F 25258.02601227 .00000169 00000+0 53399-4 0 9992 2 42808 86.3928 108.6489 0002291 91.4873 268.6585 14.34219712430531 IRIDIUM 126 1 42809U 17039G 25258.05137557 .00000069 00000+0 17683-4 0 9991 2 42809 86.3930 108.6850 0002074 93.1403 267.0030 14.34217617430512 IRIDIUM 124 1 42810U 17039H 25258.15562734 .00000494 00000+0 14087-3 0 9999 2 42810 86.4478 45.3216 0002252 89.3554 270.7905 14.43279300435443 IRIDIUM 128 1 42811U 17039J 25257.97234668 .00000015 00000+0 -16602-5 0 9998 2 42811 86.4002 140.2270 0002309 78.2074 281.9381 14.34217783430533 IRIDIUM 121 1 42812U 17039K 25258.00063483 .00000159 00000+0 49562-4 0 9997 2 42812 86.3931 108.7321 0002202 84.4786 275.6661 14.34217601430384 IRIDIUM 133 1 42955U 17061A 25258.14359549 .00000175 00000+0 55591-4 0 9993 2 42955 86.4001 140.2666 0002194 84.0034 276.1411 14.34218105415355 IRIDIUM 100 1 42956U 17061B 25258.13725366 .00000077 00000+0 20354-4 0 9997 2 42956 86.4001 140.1946 0002248 87.3878 272.7575 14.34218022415359 IRIDIUM 122 1 42957U 17061C 25258.24507585 .00000234 00000+0 76608-4 0 9999 2 42957 86.4000 140.1488 0002197 86.2793 273.8654 14.34218549415373 IRIDIUM 129 1 42958U 17061D 25257.92160458 .00000050 00000+0 10730-4 0 9998 2 42958 86.4002 140.3479 0001712 88.4214 271.7178 14.34217687415349 IRIDIUM 119 1 42959U 17061E 25258.09919789 .00000005 00000+0 -51489-5 0 9995 2 42959 86.4002 140.2679 0002016 92.6540 267.4887 14.34217631415380 IRIDIUM 107 1 42960U 17061F 25257.90892455 .00000186 00000+0 59487-4 0 9990 2 42960 86.4002 140.3674 0002455 92.5124 267.6353 14.34220157415367 IRIDIUM 132 1 42961U 17061G 25258.12456816 .00000271 00000+0 89556-4 0 9998 2 42961 86.4003 140.2588 0002248 86.6697 273.4756 14.34218965415390 IRIDIUM 136 1 42962U 17061H 25258.15628060 .00000340 00000+0 11418-3 0 9992 2 42962 86.4003 140.2509 0002149 89.5985 270.5457 14.34219347415410 IRIDIUM 139 1 42963U 17061J 25257.95331860 .00000120 00000+0 35685-4 0 9998 2 42963 86.4004 140.3931 0002317 87.4761 272.6700 14.34217944415390 IRIDIUM 125 1 42964U 17061K 25258.08017045 .00000077 00000+0 20592-4 0 9992 2 42964 86.4006 140.3962 0002259 98.6784 261.4668 14.34218050415423 IRIDIUM 135 1 43070U 17083A 25258.26359887 .00000114 00000+0 33730-4 0 9998 2 43070 86.3906 76.9414 0002088 84.1971 275.9463 14.34218006404741 IRIDIUM 138 1 43071U 17083B 25257.94012676 .00000032 00000+0 44510-5 0 9993 2 43071 86.3896 76.7361 0001820 101.6296 258.5104 14.34217700404689 IRIDIUM 116 1 43072U 17083C 25257.97819463 .00000086 00000+0 23678-4 0 9996 2 43072 86.3905 77.0503 0002305 84.0965 276.0493 14.34216568404721 IRIDIUM 130 1 43073U 17083D 25258.22554603 .00000041 00000+0 76283-5 0 9990 2 43073 86.3913 77.1955 0002506 87.7475 272.4008 14.34217680404708 IRIDIUM 151 1 43074U 17083E 25257.99086882 .00000038 00000+0 63812-5 0 9993 2 43074 86.3906 77.0966 0002247 84.0023 276.1429 14.34217857404695 IRIDIUM 134 1 43075U 17083F 25258.23823118 .00000048 00000+0 10062-4 0 9992 2 43075 86.3909 76.9974 0002445 88.8160 271.3316 14.34217751404695 IRIDIUM 137 1 43076U 17083G 25258.25091641 -.00000037 00000+0 -20248-4 0 9990 2 43076 86.3909 77.0794 0002129 71.9783 288.1645 14.34217139404760 IRIDIUM 141 1 43077U 17083H 25258.24457293 .00000044 00000+0 86455-5 0 9998 2 43077 86.3905 76.9280 0002031 91.9758 268.1670 14.34217706404767 IRIDIUM 153 1 43078U 17083J 25257.84790919 .00000148 00000+0 45699-4 0 9998 2 43078 86.3955 45.5520 0002008 103.6246 256.5173 14.34218360405812 IRIDIUM 131 1 43079U 17083K 25258.23188727 .00000138 00000+0 42363-4 0 9995 2 43079 86.3911 77.1012 0001974 89.2339 270.9083 14.34218009404690 IRIDIUM 144 1 43249U 18030A 25258.13332519 .00000228 00000+0 74437-4 0 9993 2 43249 86.3953 45.3681 0002182 91.0478 269.0968 14.34217530390717 IRIDIUM 149 1 43250U 18030B 25257.93036361 .00000126 00000+0 37971-4 0 9997 2 43250 86.3953 45.4231 0002200 89.9906 270.1542 14.34218119390708 IRIDIUM 157 1 43251U 18030C 25258.15869600 .00000250 00000+0 82108-4 0 9993 2 43251 86.3955 45.3747 0001900 91.2888 268.8526 14.34218898390714 IRIDIUM 140 1 43252U 18030D 25258.10795650 .00000230 00000+0 74994-4 0 9994 2 43252 86.3954 45.4091 0002291 92.2455 267.9003 14.34218434390763 IRIDIUM 145 1 43253U 18030E 25258.16504066 .00000101 00000+0 29075-4 0 9997 2 43253 86.3955 45.3580 0002490 85.8733 274.2747 14.34217803390704 IRIDIUM 146 1 43254U 18030F 25258.14601210 .00000171 00000+0 53869-4 0 9990 2 43254 86.3954 45.3793 0002413 87.5367 272.6105 14.34218359390715 IRIDIUM 148 1 43255U 18030G 25258.11429611 .00000325 00000+0 10891-3 0 9999 2 43255 86.3955 45.4313 0002045 88.1101 272.0330 14.34219746390748 IRIDIUM 142 1 43256U 18030H 25258.15235500 .00000115 00000+0 34048-4 0 9994 2 43256 86.3952 45.3145 0002502 83.6820 276.4661 14.34218114390714 IRIDIUM 150 1 43257U 18030J 25258.12064192 .00000099 00000+0 28439-4 0 9997 2 43257 86.3955 45.4351 0002394 89.1959 270.9511 14.34217962390736 IRIDIUM 143 1 43258U 18030K 25258.17138282 .00000121 00000+0 35968-4 0 9996 2 43258 86.3958 45.4957 0002538 86.2953 273.8533 14.34218633390679 IRIDIUM 161 1 43478U 18047C 25258.13357248 .00000308 00000+0 85661-4 0 9991 2 43478 86.4540 203.3531 0002136 87.4084 272.7362 14.43280335385463 IRIDIUM 152 1 43479U 18047D 25258.28363751 .00000342 00000+0 11518-3 0 9991 2 43479 86.4014 203.1514 0002262 89.2774 270.8681 14.34219628383081 IRIDIUM 147 1 43480U 18047E 25257.94113713 .00000246 00000+0 80716-4 0 9996 2 43480 86.4016 203.2947 0002147 83.2627 276.8813 14.34218816383035 IRIDIUM 110 1 43481U 18047F 25258.08701565 .00000200 00000+0 64331-4 0 9996 2 43481 86.4016 203.3182 0001824 91.5789 268.5616 14.34217971383041 IRIDIUM 162 1 43482U 18047G 25258.12726389 .00000302 00000+0 83794-4 0 9990 2 43482 86.4538 203.2502 0002192 92.1428 268.0024 14.43278386385454 IRIDIUM 160 1 43569U 18061A 25258.17238902 .00000223 00000+0 72696-4 0 9997 2 43569 86.4049 171.7266 0001977 85.5268 274.6153 14.34218284373950 IRIDIUM 166 1 43570U 18061B 25258.19776050 .00000002 00000+0 -63490-5 0 9991 2 43570 86.4047 171.6703 0002239 79.8140 280.3308 14.34217632373987 IRIDIUM 158 1 43571U 18061C 25258.16604664 .00000230 00000+0 75118-4 0 9991 2 43571 86.4047 171.6935 0002222 88.1530 271.9920 14.34218290373946 IRIDIUM 165 1 43572U 18061D 25258.19141712 .00000147 00000+0 45491-4 0 9993 2 43572 86.4046 171.7238 0002238 81.1002 279.0447 14.34218886373974 IRIDIUM 155 1 43573U 18061E 25258.22313067 .00000147 00000+0 45429-4 0 9993 2 43573 86.4044 171.5937 0002417 86.2294 273.9179 14.34218016373942 IRIDIUM 154 1 43574U 18061F 25258.20409997 .00000400 00000+0 13561-3 0 9993 2 43574 86.4048 171.7212 0002230 82.7199 277.4251 14.34219100373993 IRIDIUM 163 1 43575U 18061G 25258.18507456 .00000074 00000+0 19283-4 0 9995 2 43575 86.4045 171.6533 0002051 87.6876 272.4555 14.34218300373963 IRIDIUM 156 1 43576U 18061H 25258.02016848 .00000073 00000+0 19151-4 0 9992 2 43576 86.4043 171.7289 0002592 85.2525 274.8967 14.34217962373939 IRIDIUM 164 1 43577U 18061J 25258.21044521 .00000021 00000+0 57366-6 0 9998 2 43577 86.4046 171.6855 0002138 78.1068 282.0368 14.34217859374000 IRIDIUM 159 1 43578U 18061K 25258.03921155 .00000154 00000+0 47760-4 0 9998 2 43578 86.4045 171.6997 0002044 81.5439 278.5989 14.34217874373941 IRIDIUM 180 1 43922U 19002A 25257.96892290 .00000061 00000+0 14833-4 0 9997 2 43922 86.3929 108.6758 0002026 90.2849 269.8579 14.34217757349548 IRIDIUM 176 1 43923U 19002B 25258.16163987 .00001003 00000+0 15508-3 0 9991 2 43923 86.6053 108.5787 0002912 93.9698 266.1853 14.72262816358786 IRIDIUM 168 1 43924U 19002C 25258.10211695 .00000148 00000+0 45781-4 0 9992 2 43924 86.3931 108.6897 0002115 88.7064 271.4374 14.34218380349542 IRIDIUM 173 1 43925U 19002D 25258.01966295 .00000232 00000+0 75712-4 0 9997 2 43925 86.3929 108.6242 0002156 92.9691 267.1752 14.34217857349519 IRIDIUM 169 1 43926U 19002E 25258.08961507 .00000200 00000+0 58942-4 0 9997 2 43926 86.4256 140.2184 0003112 103.9344 256.2201 14.38609272350679 IRIDIUM 172 1 43927U 19002F 25258.01332033 .00000047 00000+0 95824-5 0 9997 2 43927 86.3927 108.6339 0001843 89.6969 270.4438 14.34218033349525 IRIDIUM 175 1 43928U 19002G 25258.15677994 .00000446 00000+0 66738-4 0 9995 2 43928 86.1472 55.9536 0003006 79.0332 281.1223 14.72245247358779 IRIDIUM 171 1 43929U 19002H 25257.99429337 .00000118 00000+0 35249-4 0 9992 2 43929 86.3939 108.9182 0002343 81.1703 278.9758 14.34217773349515 IRIDIUM 170 1 43930U 19002J 25258.03189527 .00000664 00000+0 10137-3 0 9998 2 43930 86.6053 108.6372 0002431 85.8761 274.2734 14.72257791358775 IRIDIUM 167 1 43931U 19002K 25257.98795180 .00000005 00000+0 -51301-5 0 9990 2 43931 86.3928 108.6644 0002446 84.0109 276.1366 14.34217513349519 IRIDIUM 181 1 56726U 23068S 25258.21541538 .00000446 00000+0 12638-3 0 9992 2 56726 86.4581 171.6724 0002335 69.8292 290.3160 14.43313877122778 IRIDIUM 177 1 56727U 23068T 25257.98124690 .00000330 00000+0 39918-4 0 9995 2 56727 86.1920 99.5020 0002454 82.1590 277.9909 14.80228012125650 IRIDIUM 174 1 56728U 23068U 25258.01954737 .00000647 00000+0 98654-4 0 9997 2 56728 86.6063 108.7621 0002105 95.5199 264.6259 14.72248695125538 IRIDIUM 178 1 56729U 23068V 25258.10558781 .00000923 00000+0 11805-3 0 9996 2 56729 86.6575 140.3333 0002540 87.9734 272.1779 14.80229504125675 IRIDIUM 179 1 56730U 23068W 25258.16781642 .00001437 00000+0 18566-3 0 9990 2 56730 86.6833 148.4517 0002890 84.2608 275.8944 14.80235459125686